Terminal Aerodrome Forecast
Issued by NWS

Home | Current Version | Previous Version | Text Only | Print | Product List | Glossary On
Versions: 1 2 3 4 5 6 7 8 9 10 11 12 13
041
FTUS45 KRIW 222004 AAA
TAFWRL
TAF AMD
KWRL 222004Z 2220/2318 02013KT P6SM FEW070
     FM230000 35013G18KT P6SM FEW080
     FM230400 32009KT P6SM FEW060
     FM230800 29006KT P6SM SKC=

USA.gov is the U.S. government's official web portal to all federal, state and local government web resources and services.